Flag for U.S.A. Weather past 2 weeks in Nashville, Tennessee, U.S.A.

Now
68 °F

More clouds than sun.


Feels Like: 68 °F
Forecast: 67 / 77 °F
Wind: 3 mph from Southeast

Location: Nashville International Airport

Current Time: May 28, 2015 at 7:36:54 AM

Latest Report: May 28, 2015 at 6:53 AM


Visibility: 9 mi

Pressure: 30.19 "Hg

Humidity: 96%

Dew point: 67 °F

Location of NashvilleLocation

Historic Weather in Nashville — Graph

°F

Nashville temperature yesterday

Maximum temperature yesterday: 82 °F (at 11:53 AM)
Minimum temperature yesterday: 68 °F (at 1:53 AM)
Average temperature yesterday: 72 °F

Past Weeks' High & Low Weather Summary

 TemperatureHumidityPressure
High86 °F (May 24, 1:53 PM)97% (May 28, 3:53 AM)30.36 "Hg (May 28, 3:53 AM)
Low45 °F (May 22, 4:53 AM)27% (May 13, 3:53 PM)29.86 "Hg (May 20, 6:53 PM)
Average70 °F72%30.15 "Hg
* Reported May 13 5:53 AM — May 28 5:53 AM, Nashville, Weather by CustomWeather, © 2015

Note: Actual official high and low records may vary slightly from our data, if they occured in-between our weather recording intervals... More about our weather records

Advertising

Nashville weather history for previous 24 hours

 ConditionsComfort  
Time TempWeatherWind HumidityBarometerVisibility
5:53 AM
Thu, May 28
67 °FMostly cloudy.3 mph97%30.19 "Hg7 mi
4:53 AM67 °FLight rain. Low clouds.No wind97%30.16 "Hg8 mi
3:53 AM67 °FMostly cloudy.No wind97%30.14 "Hg10 mi
12:53 AM67 °FHigh level clouds.3 mph93%30.14 "Hg10 mi
11:53 PM
Wed, May 27
68 °FOvercast.6 mph93%30.15 "Hg10 mi
10:53 PM69 °FOvercast.6 mph90%30.17 "Hg10 mi
9:53 PM69 °FMostly cloudy.6 mph93%30.18 "Hg10 mi
8:53 PM69 °FOvercast.No wind96%30.16 "Hg10 mi
7:53 PM70 °FCloudy.3 mph93%30.14 "Hg10 mi
6:53 PM72 °FCloudy.No wind87%30.12 "Hg10 mi
5:53 PM71 °FMore clouds than sun.8 mph90%30.13 "Hg10 mi
4:53 PM71 °FMore clouds than sun.5 mph90%30.12 "Hg10 mi
3:53 PM71 °FBroken clouds.3 mph87%30.15 "Hg10 mi
2:53 PM70 °FPartly sunny.3 mph87%30.19 "Hg10 mi
1:53 PM69 °FRain. Fog.7 mph84%30.19 "Hg3 mi
12:53 PM82 °FCloudy.9 mph63%30.14 "Hg10 mi
11:53 AM82 °FPartly sunny.6 mph63%30.16 "Hg10 mi
10:53 AM80 °FBroken clouds.7 mph69%30.17 "Hg10 mi
9:53 AM77 °FOvercast.7 mph74%30.18 "Hg10 mi
8:53 AM74 °FPartly sunny.9 mph82%30.18 "Hg10 mi
7:53 AM72 °FMostly cloudy.10 mph87%30.17 "Hg10 mi
Weather by CustomWeather, © 2015

See weather overviewHow to use our weather pages